Weather observations for the past three days for
Statesville Municipal Airport
Imperial (Metric)
Date Time (edt) Wind (mph) Vis. (mi.) Weather Sky Cond. Temperature (ºF) Relative Humidity Wind Chill (°F) Heat Index (°F) Pressure Precipitation (in)
Air Dwpt 6 hour altimeter (in) sea level (mb) 1 hr 3 hr 6 hr
Max. Min.
21 11:25 S 3 10.00 Overcast SCT009 OVC019 77.4 72 84% 79 30.13 0.0
21 11:05 S 3 10.00 Overcast BKN009 OVC017 76.8 72.3 86% 78 30.12 0.0
21 10:45 Calm 10.00 Overcast BKN011 OVC017 77 71.8 84% 78 30.12 0.0
21 10:25 Calm 10.00 Overcast BKN008 OVC012 75.2 70.7 86% 75 30.13 0.0
21 10:05 Calm 10.00 Overcast BKN008 OVC012 75.6 71.2 87% 76 30.12 0.0
21 09:45 Calm 10.00 Overcast OVC010 75 71.4 89% 74 30.12 0.0
21 09:25 Calm 10.00 Overcast OVC008 73.4 70.5 91% 30.12 0.0
21 09:05 Calm 10.00 Overcast OVC008 73.4 70.7 91% 30.12 0.0
21 08:45 Calm 10.00 Overcast OVC008 73.4 70.9 92% 30.12 0.0
21 08:25 Calm 10.00 Overcast OVC008 72.1 70.3 94% 30.11 0.0
21 08:05 Calm 10.00 Overcast OVC008 71.6 70.5 96% 30.11 0.0
21 07:45 Calm 10.00 Overcast OVC008 71.2 70.5 98% 30.11 0.0
21 07:25 Calm 7.00 Overcast OVC008 70.7 70 98% 30.11 0.0
21 07:05 SE 3 5.00 Fog/Mist SCT003 OVC008 70.7 70 98% 30.11 0.0
21 06:45 Calm 5.00 Fog/Mist OVC008 70.7 70 98% 30.1 0.0
21 06:25 Calm 5.00 Fog/Mist SCT002 OVC010 70.3 69.8 98% 30.1 0.0
21 06:05 Calm 5.00 Fog/Mist SCT002 OVC012 70.3 69.8 98% 30.1 0.0
21 05:45 Calm 7.00 Overcast SCT002 OVC012 70.7 69.8 97% 30.09 0.0
21 05:25 Calm 5.00 Fog/Mist OVC012 70 69.3 98% 30.09 0.0
21 05:05 Calm 7.00 Mostly Cloudy BKN012 70.2 69.4 98% 30.09 0.0
21 04:45 Calm 7.00 Partly Cloudy SCT012 70 69.3 98% 30.09 0.0
21 04:25 Calm 7.00 Overcast BKN012 OVC018 70 69.3 98% 30.1 0.0
21 04:05 Calm 5.00 Fog/Mist SCT001 BKN014 OVC033 69.8 69.1 98% 30.1 0.0
21 03:45 Calm 5.00 Fog/Mist SCT014 69.8 69.1 98% 30.1 0.0
21 03:25 Calm 5.00 Fog/Mist CLR 70 69.1 97% 30.1 0.0
21 03:05 Calm 10.00 Fair CLR 70.2 69.3 97% 30.1 0.0
21 02:45 Calm 10.00 Partly Cloudy SCT060 70.7 69.8 97% 30.1 0.0
21 02:25 Calm 10.00 Overcast SCT038 SCT047 OVC060 70.7 69.8 97% 30.1 0.0
21 02:05 Calm 7.00 Mostly Cloudy BKN050 70.7 69.8 97% 30.11 0.0
21 01:45 Calm 10.00 Partly Cloudy SCT005 SCT045 70.7 69.8 97% 30.11 0.0
21 01:25 Calm 10.00 Mostly Cloudy BKN005 70.7 70 98% 30.11 0.0
21 01:05 Calm 10.00 Overcast OVC005 71.1 70.3 98% 30.12 0.0
21 00:45 Calm 7.00 Overcast OVC005 70.9 70.2 98% 30.11 0.0
21 00:25 Calm 10.00 Mostly Cloudy BKN003 BKN007 BKN012 70.9 70.2 98% 30.12 0.0
20 23:45 Calm 10.00 Overcast OVC005 71.2 70.5 98% 30.13 0.0
20 23:25 Calm 10.00 Mostly Cloudy SCT003 SCT007 BKN011 71.1 70.3 98% 30.14 0.0
20 23:05 Calm 10.00 Partly Cloudy SCT120 70.9 70.2 98% 30.13 0.0
20 22:45 Calm 10.00 Partly Cloudy SCT003 SCT120 70.9 70.2 98% 30.13 0.0
20 22:25 Calm 10.00 Light Drizzle SCT003 SCT007 SCT080 71.2 70.3 97% 30.13 0.0
20 22:05 Calm 10.00 Partly Cloudy SCT003 SCT120 71.4 70.5 97% 30.13 0.0
20 21:45 Calm 10.00 Partly Cloudy SCT003 71.6 70.5 96% 30.12 0.0
20 21:25 Calm 10.00 Partly Cloudy SCT003 SCT010 71.6 70.5 96% 30.12 0.0
20 21:05 Calm 10.00 Mostly Cloudy BKN008 BKN012 BKN090 72 70.9 96% 30.12 0.0
20 20:45 Calm 10.00 Light Drizzle SCT008 BKN090 72 70.9 96% 30.12 0.0 0.01
20 20:25 Calm 10.00 Light Rain SCT090 72.1 70.9 96% 30.12 0.0 0.01
20 20:05 Calm 10.00 Light Rain SCT050 SCT065 BKN075 72.3 71.1 96% 30.12 0.0 0.01
20 19:45 Calm 10.00 Light Rain SCT009 BKN060 BKN075 72 70.7 96% 30.12 0.0 0.01
20 19:25 Calm 7.00 Rain SCT055 BKN090 BKN110 72.1 70.5 95% 30.11 0.0
20 19:05 Calm 10.00 Light Rain SCT060 SCT075 BKN110 72 70.2 94% 30.12 0.0
20 18:45 Calm 10.00 Light Rain SCT065 BKN090 BKN110 72 70.5 95% 30.1 0.0
20 18:25 Calm 10.00 Mostly Cloudy BKN095 BKN120 72 70.5 95% 30.09 0.0
20 18:05 Calm 10.00 Mostly Cloudy SCT005 SCT050 BKN120 71.6 70.3 96% 30.09 0.0
20 17:45 NE 3 4.00 Heavy Rain SCT008 BKN050 OVC080 71.6 70.3 96% 30.09 0.0 0.45
20 17:25 Calm 1.00 Heavy Rain BKN010 BKN023 OVC032 70.7 69.8 97% 30.1 0.0 0.32
20 17:05 NW 9 1.75 Heavy Rain SCT014 BKN033 OVC047 72.3 70.3 94% 30.1 0.0 0.03
20 16:45 N 13 G 17 10.00 Overcast OVC034 75.2 69.3 82% 76 30.09 0.0
20 16:25 Calm 10.00 Overcast SCT031 BKN038 OVC048 83.8 70 63% 88 30.07 0.0
20 16:05 S 3 10.00 Overcast BKN037 BKN049 OVC085 82.8 69.8 65% 87 30.07 0.0
20 15:45 S 5 10.00 Mostly Cloudy SCT035 BKN043 BKN050 83.7 68.7 61% 87 30.08 0.0
20 15:25 SW 6 10.00 Partly Cloudy SCT035 SCT048 SCT080 85.5 69.3 58% 90 30.08 0.0
20 15:05 SW 6 10.00 Mostly Cloudy SCT027 SCT060 BKN110 85.1 69.3 59% 89 30.09 0.0
20 14:45 S 6 10.00 Mostly Cloudy SCT027 BKN110 82 69.3 65% 86 30.09 0.0
20 14:25 SW 8 10.00 Partly Cloudy SCT025 SCT036 SCT042 83.8 70.5 64% 88 30.1 0.0
20 14:05 S 5 10.00 Partly Cloudy SCT032 SCT042 82.9 70.5 66% 87 30.11 0.0
20 13:45 SW 6 10.00 Mostly Cloudy SCT023 SCT032 BKN041 82.4 71.2 69% 87 30.12 0.0
20 13:25 S 8 10.00 Mostly Cloudy BKN023 82.6 70.7 67% 87 30.13 0.0
20 13:05 SW 6 10.00 Mostly Cloudy BKN019 BKN033 81.9 71.2 70% 86 30.13 0.0
20 12:45 S 6 10.00 Mostly Cloudy BKN019 BKN035 BKN110 80.1 71.4 75% 84 30.14 0.0
20 12:25 SW 5 10.00 Mostly Cloudy SCT015 SCT036 BKN110 79.5 71.8 77% 83 30.14 0.0
20 12:05 SW 8 10.00 Mostly Cloudy SCT013 BKN036 BKN110 78.4 71.1 78% 81 30.14 0.0
20 11:45 W 7 10.00 Overcast BKN013 BKN034 OVC120 77.4 71.2 82% 79 30.14 0.0
20 11:25 SW 5 10.00 Mostly Cloudy SCT011 SCT020 BKN120 77.5 72 83% 79 30.14 0.0
20 11:05 W 6 10.00 Partly Cloudy SCT009 SCT014 SCT039 77 72.1 85% 78 30.14 0.0
20 10:45 SW 6 10.00 Overcast BKN007 BKN014 OVC046 75.9 72.7 90% 76 30.14 0.0
20 10:25 SW 6 10.00 Overcast OVC007 75.2 72 90% 75 30.14 0.0
20 10:05 SW 5 10.00 Overcast OVC005 73.6 72 95% 30.14 0.0
20 09:45 SW 6 7.00 Overcast OVC005 73.4 72.1 96% 30.14 0.0 0.01
20 09:25 SW 5 3.00 Light Drizzle OVC003 72.3 71.4 97% 30.14 0.0 0.01
20 09:05 SW 5 1.50 Heavy Drizzle OVC003 71.8 70.9 97% 30.14 0.0 0.01
20 08:45 SW 5 1.75 Fog/Mist OVC003 71.8 70.7 96% 30.14 0.0
20 08:25 SW 5 4.00 Fog/Mist OVC003 71.6 70.5 96% 30.13 0.0
20 08:05 S 5 10.00 Overcast OVC003 71.6 70.3 96% 30.12 0.0
20 07:45 Calm 10.00 Overcast OVC005 71.6 70.2 95% 30.12 0.0
20 07:25 S 3 10.00 Overcast OVC005 71.6 70 95% 30.12 0.0
20 07:05 SW 5 10.00 Overcast SCT005 OVC010 71.8 70.3 95% 30.12 0.0
20 06:45 Calm 10.00 Overcast BKN005 OVC012 71.6 70.3 96% 30.12 0.0
20 06:25 Calm 10.00 Overcast BKN005 OVC021 71.6 70.5 96% 30.11 0.0
20 06:05 Calm 10.00 Overcast SCT005 SCT010 OVC023 71.6 70.3 96% 30.1 0.0
20 05:45 Calm 10.00 Overcast BKN005 OVC013 71.6 70.7 97% 30.1 0.0
20 05:25 Calm 10.00 Overcast BKN005 BKN018 OVC024 71.8 70.5 96% 30.1 0.0
20 05:05 E 3 10.00 Overcast SCT005 SCT011 OVC016 72 70.9 96% 30.09 0.0
20 04:45 Calm 10.00 Overcast SCT005 OVC014 71.8 70.7 96% 30.1 0.0
20 04:25 Calm 10.00 Overcast SCT005 BKN025 OVC031 71.6 70.7 97% 30.1 0.0
20 04:05 Calm 10.00 Partly Cloudy SCT005 SCT025 SCT031 71.6 70.5 96% 30.1 0.0
20 03:45 Calm 10.00 Partly Cloudy SCT048 SCT110 72.1 70.5 95% 30.09 0.0
20 03:25 Calm 10.00 Mostly Cloudy SCT046 BKN110 72.3 70.7 95% 30.09 0.0
20 03:05 Calm 10.00 Partly Cloudy SCT110 72.9 71.1 94% 30.09 0.0
20 02:45 Calm 10.00 Partly Cloudy SCT011 72.9 71.1 94% 30.1 0.0
20 02:25 Calm 10.00 Partly Cloudy SCT045 72.9 71.1 94% 30.1 0.0
20 02:05 Calm 10.00 Fair CLR 73.4 70.9 92% 30.1 0.0
20 01:25 Calm 10.00 Light Rain BKN011 OVC110 73.8 71.6 93% 30.1 0.0
20 01:05 Calm 10.00 Mostly Cloudy SCT011 BKN110 74.3 71.2 90% 30.1 0.0
20 00:45 Calm 10.00 Mostly Cloudy BKN011 BKN017 BKN024 75 71.8 90% 74 30.11 0.0
20 00:25 Calm 10.00 Mostly Cloudy BKN011 BKN017 BKN024 75.2 71.6 89% 75 30.12 0.0
20 00:05 SE 3 10.00 Partly Cloudy SCT011 SCT120 75.2 71.2 88% 75 30.12 0.0
19 23:45 SE 5 10.00 Mostly Cloudy SCT075 BKN120 75.6 71.2 87% 76 30.13 0.0
19 23:25 E 3 10.00 Overcast BKN075 OVC110 75.4 70.9 86% 75 30.14 0.0
19 23:05 SE 3 10.00 Overcast SCT075 OVC120 77 71.6 83% 78 30.14 0.0
19 22:45 SE 3 10.00 Partly Cloudy SCT120 77 71.4 83% 78 30.14 0.0
19 22:25 SE 3 10.00 Light Rain SCT070 77 70.7 81% 79 30.13 0.0
19 22:05 SE 5 10.00 Fair CLR 77 70.9 81% 79 30.13 0.0
19 21:45 E 3 10.00 Fair CLR 77 71.8 84% 78 30.12 0.0
19 21:25 E 3 10.00 Fair CLR 77 72 85% 78 30.12 0.0
19 21:05 E 3 10.00 Fair CLR 77 71.6 83% 78 30.12 0.0
19 20:45 E 5 10.00 Fair CLR 78.1 71.8 81% 80 30.12 0.0
19 20:25 E 5 10.00 Fair CLR 78.8 72.5 81% 82 30.12 0.0
19 20:05 E 3 10.00 Fair CLR 79.9 72.5 78% 84 30.1 0.0
19 19:45 Calm 10.00 Fair CLR 80.2 71.6 75% 84 30.09 0.0
19 19:25 Calm 10.00 Fair CLR 80.6 71.6 74% 85 30.09 0.0
19 19:05 E 6 10.00 Partly Cloudy SCT027 SCT037 81.1 71.8 73% 85 30.08 0.0
19 18:45 SE 5 10.00 Partly Cloudy SCT034 SCT040 82 71.4 70% 87 30.08 0.0
19 18:25 SE 5 10.00 Fair CLR 82.4 69.6 65% 86 30.09 0.0
19 18:05 SE 5 10.00 Partly Cloudy SCT033 82.6 69.8 65% 86 30.08 0.0
19 17:45 SE 5 10.00 Partly Cloudy SCT033 82.9 69.4 64% 87 30.08 0.0
19 17:25 E 6 10.00 Partly Cloudy SCT031 SCT040 85.5 69.1 58% 89 30.07 0.0
19 17:05 SE 7 10.00 Partly Cloudy SCT029 SCT070 85.6 70.2 60% 90 30.06 0.0
19 16:45 E 8 10.00 Partly Cloudy SCT070 84.4 68.7 59% 88 30.07 0.0
19 16:25 SE 7 10.00 Partly Cloudy SCT070 84.7 69.4 60% 89 30.08 0.0
19 16:05 SE 6 10.00 Partly Cloudy SCT027 SCT070 84.4 70.2 62% 89 30.09 0.0
19 15:45 SE 5 10.00 Partly Cloudy SCT027 84.7 70.9 63% 90 30.09 0.0
19 15:25 Calm 10.00 Partly Cloudy SCT022 SCT027 82.4 70 66% 86 30.1 0.0
19 15:05 Calm 10.00 Fair CLR 81.7 70.3 69% 86 30.11 0.0
19 14:45 SE 3 10.00 Partly Cloudy SCT021 SCT028 82 70 67% 86 30.11 0.0
19 14:25 SE 5 10.00 Mostly Cloudy BKN023 BKN028 81.1 70.7 71% 85 30.12 0.0
19 14:05 Calm 10.00 Mostly Cloudy BKN023 BKN028 82 70.5 68% 86 30.13 0.0
19 13:45 E 6 10.00 Partly Cloudy SCT018 SCT025 SCT047 82.8 70 65% 87 30.14 0.0
19 13:25 SE 6 10.00 Overcast BKN018 OVC025 80.4 71.2 74% 84 30.14 0.0
19 13:05 SE 3 10.00 Overcast BKN016 OVC023 79.7 71.6 76% 83 30.15 0.0
19 12:45 E 8 10.00 Overcast BKN014 BKN018 OVC024 79 71.1 77% 82 30.15 0.0
19 12:25 E 6 10.00 Overcast BKN014 BKN025 OVC095 78.1 71.4 80% 80 30.15 0.0
19 12:05 E 6 10.00 Overcast SCT012 SCT027 OVC095 77.4 71.4 82% 79 30.15 0.0
19 11:45 E 6 10.00 Overcast SCT014 BKN027 OVC100 77 71.6 83% 78 30.15 0.0
19 11:25 E 5 10.00 Overcast BKN014 OVC020 75.2 71.2 88% 75 30.15 0.0
19 11:05 E 6 10.00 Overcast BKN011 OVC018 75.2 70.5 85% 75 30.14 0.0
19 10:45 E 5 10.00 Overcast OVC013 75.2 70.7 86% 75 30.14 0.0
19 10:25 E 7 10.00 Overcast OVC011 75.2 70.5 85% 75 30.14 0.0
19 10:05 E 6 10.00 Overcast OVC011 74.8 70.9 88% 30.14 0.0
19 09:45 NE 3 10.00 Overcast OVC011 74.7 70.7 88% 30.14 0.0
19 09:25 E 5 10.00 Overcast OVC011 74.3 70.7 89% 30.13 0.0
19 09:05 NE 7 10.00 Mostly Cloudy SCT011 BKN120 74.7 70.3 86% 30.13 0.0
19 08:45 NE 6 10.00 Partly Cloudy SCT100 73.6 69.6 87% 30.13 0.0
19 08:25 NE 7 10.00 Mostly Cloudy BKN100 73.6 70.3 90% 30.12 0.0
19 08:05 NE 6 10.00 Fair CLR 73.4 70.3 90% 30.12 0.0
19 07:45 NE 3 10.00 Fair CLR 72.9 71.1 94% 30.11 0.0
19 07:25 Calm 10.00 Fair CLR 72.5 70.7 94% 30.1 0.0
19 07:05 E 3 10.00 Fair CLR 71.6 70.3 96% 30.09 0.0
19 06:45 Calm 10.00 Fair CLR 71.2 70.2 96% 30.08 0.0
19 06:25 N 3 10.00 Partly Cloudy SCT100 71.6 70.5 96% 30.07 0.0
19 06:05 N 5 10.00 Mostly Cloudy BKN100 71.6 70.7 97% 30.07 0.0
19 05:45 NE 3 10.00 Mostly Cloudy SCT060 BKN070 BKN100 71.8 70.5 96% 30.06 0.0
19 05:25 Calm 10.00 Overcast SCT008 BKN025 OVC060 72.5 71.1 95% 30.06 0.0
19 05:05 Calm 10.00 Overcast OVC008 73 71.8 96% 30.06 0.0
19 04:45 Calm 10.00 Overcast OVC008 73.4 72.1 96% 30.06 0.0
19 04:25 Calm 10.00 Overcast OVC010 73.4 72.3 96% 30.05 0.0
19 04:05 Calm 7.00 Overcast SCT003 BKN007 OVC010 73.4 72.5 97% 30.05 0.0
19 03:45 Calm 7.00 Overcast OVC003 73.4 72.5 97% 30.04 0.0
19 03:25 E 3 7.00 Overcast BKN003 OVC008 73.4 72.5 97% 30.05 0.0
19 03:05 Calm 10.00 Overcast OVC007 73.4 72.5 97% 30.05 0.0
19 02:45 Calm 7.00 Overcast OVC003 73.4 72.5 97% 30.05 0.0
19 02:25 Calm 7.00 Overcast OVC003 73.4 72.5 97% 30.05 0.0
19 02:05 Calm 7.00 Overcast BKN003 OVC120 73.4 72.5 97% 30.05 0.0
19 01:45 Calm 10.00 Mostly Cloudy SCT003 SCT044 BKN120 73.4 72.1 96% 30.06 0.0
19 01:25 Calm 10.00 Mostly Cloudy SCT003 SCT007 BKN044 73.4 72.3 96% 30.07 0.0
19 01:05 Calm 10.00 Mostly Cloudy SCT003 SCT007 BKN060 73.4 72.5 97% 30.06 0.0
19 00:45 Calm 10.00 Overcast BKN040 BKN048 OVC055 73.4 72.5 97% 30.06 0.0
19 00:25 Calm 7.00 Mostly Cloudy SCT042 SCT048 BKN055 73.4 72.5 97% 30.05 0.0
19 00:05 Calm 7.00 Partly Cloudy SCT042 SCT049 73.6 72.5 96% 30.05 0.0
18 23:45 Calm 10.00 Fair CLR 73.6 72.5 96% 30.05 0.0
18 23:25 Calm 10.00 Fair CLR 73.8 72.7 96% 30.05 0.0
18 23:05 Calm 10.00 Fair CLR 73.8 72.7 96% 30.05 0.0
18 22:45 Calm 10.00 Fair CLR 73.8 72.7 96% 30.05 0.0
18 22:25 SW 3 10.00 Fair CLR 73.6 72.7 97% 30.04 0.0
18 22:05 Calm 10.00 Fair CLR 73.6 72.7 97% 30.04 0.0
18 21:45 Calm 10.00 Fair CLR 73.8 72.7 96% 30.03 0.0
18 21:25 SW 3 10.00 Fair CLR 74.3 72.9 95% 30.03 0.0
18 21:05 Calm 10.00 Fair CLR 74.3 72.7 95% 30.02 0.0
18 20:45 Calm 10.00 Fair CLR 75.2 72.7 92% 74 30 0.0
18 20:25 Calm 10.00 Fair CLR 75.2 73 93% 74 30 0.0
18 20:05 Calm 10.00 Fair CLR 77 73.6 89% 78 30 0.0
18 19:45 Calm 10.00 Fair CLR 77.7 72.3 84% 80 30 0.0
18 19:25 Calm 10.00 Fair CLR 78.1 73 85% 81 30 0.0
18 19:05 Calm 10.00 Fair CLR 77.9 72 82% 80 30 0.0
18 18:45 N 3 10.00 Fair CLR 78.1 72.7 84% 81 29.99 0.0
18 18:25 Calm 10.00 Fair CLR 75.2 73.4 94% 74 29.99 0.0
18 18:05 Calm 10.00 Fair CLR 73.4 72 95% 29.99 0.0
18 17:45 Calm 10.00 Light Rain SCT037 SCT065 SCT090 73.4 72 95% 29.99 0.0 0.04
18 17:25 Calm 7.00 Rain BKN090 OVC110 73.2 71.8 95% 29.99 0.0 0.03
18 17:05 Calm 7.00 Rain OVC110 72.9 71.6 96% 29.99 0.0
18 16:45 Calm 10.00 Light Rain SCT027 SCT041 OVC110 72.1 70.7 95% 30 0.0 0.3
18 16:25 Calm 1.50 Heavy Rain SCT013 BKN027 OVC040 72 70.2 94% 30.01 0.0 0.26
18 16:05 W 21 G 29 5.00 Rain and Breezy SCT013 BKN060 OVC070 75.4 71.8 89% 75 30.01 0.0 0.02
18 15:45 N 5 10.00 Overcast SCT060 OVC080 86.4 66.9 52% 89 29.95 0.0
18 15:25 N 3 10.00 Overcast BKN065 BKN070 OVC120 90.7 67.1 46% 94 29.95 0.0
18 15:05 NE 3 10.00 Mostly Cloudy BKN060 BKN070 BKN120 90.9 67.1 46% 94 29.95 0.0
18 14:45 NE 5 10.00 Overcast BKN050 OVC070 90.1 66.7 46% 93 29.97 0.0
18 14:25 Calm 10.00 Mostly Cloudy BKN060 BKN070 90.5 66.7 46% 94 29.97 0.0
18 14:05 Calm 10.00 Partly Cloudy SCT049 SCT060 SCT070 89.6 66.4 46% 92 29.98 0.0
18 13:45 Calm 10.00 Partly Cloudy SCT050 SCT070 89.1 67.6 49% 93 29.99 0.0
18 13:25 N 6 10.00 Mostly Cloudy BKN048 BKN060 86.9 68 53% 90 30 0.0
18 13:05 W 7 10.00 Mostly Cloudy BKN048 BKN050 88.9 67.5 49% 92 30 0.0
18 12:45 SW 6 10.00 Mostly Cloudy SCT046 BKN050 88.2 66.7 49% 91 30 0.0
18 12:25 W 8 10.00 Partly Cloudy SCT046 88.3 66.7 49% 91 30 0.0
18 12:05 NW 9 10.00 Partly Cloudy SCT038 SCT044 87.6 66.7 50% 90 30.01 0.0
18 11:45 W 7 10.00 Partly Cloudy SCT038 86.9 68.4 54% 91 30.01 0.0
Date Time (edt) Wind (mph) Vis. (mi.) Weather Sky Cond. Air Dwpt Max. Min. Relative Humidity Wind Chill (°F) Heat Index (°F) altimeter (in) sea level (mb) 1 hr 3 hr 6 hr
6 hour
Temperature (ºF) Pressure Precipitation (in)